Location: ???? ????
(41.4149°N, 22.8816°E)
Time: 14:50:06
(UTC+00:00)

Resurs 1-4 Rocket - Pass Details

Date: 14 July 2020
Orbit: 800 x 814 km, 98.6° (Epoch: 03 August)

Event Time Altitude Azimuth Distance (km) Brightness Sun altitude
Rises 01:22:56 0° 359° (N) 3,345 6.1 -15.9°
Reaches altitude 10° 01:25:48 10° 344° (NNW) 2,407 5.0 -15.5°
Maximum altitude 01:29:39 21° 297° (WNW) 1,764 3.7 -15.0°
Enters shadow 01:32:21 14° 261° (W) 2,099 3.8 -14.7°
